ANA730 RJTT-RJFF

Flight info

Callsign ANA730
Flight time N/A
Altitude 36000
Route TIARA GUSRO Y20 KIRIN
Aircraft B744/H-SDE3FGHIM1M2RWXY/LB1

Departure

Time 2026-05-01 13:29
Airport Tokyo Haneda International Airport (RJTT)

Arrival

Time N/A
Airport Fukuoka Airport (RJFF)
Time Latitude Longitude Altitude Speed Heading
2026-05-01 12:58 35.55270 139.78880 28 ft 0 kts 239°
2026-05-01 13:16 35.55277 139.78893 28 ft 0 kts 239°
2026-05-01 13:16 35.55283 139.78905 27 ft 0 kts 239°
2026-05-01 13:17 35.55335 139.78952 26 ft 0 kts 159°
2026-05-01 13:17 35.55342 139.78949 26 ft 0 kts 152°
2026-05-01 13:21 35.55334 139.78954 26 ft 2 kts 152°
2026-05-01 13:21 35.55320 139.78963 26 ft 2 kts 155°
2026-05-01 13:22 35.55289 139.78979 26 ft 6 kts 158°
2026-05-01 13:22 35.55247 139.79005 25 ft 5 kts 141°
2026-05-01 13:22 35.55225 139.79051 24 ft 6 kts 102°
2026-05-01 13:22 35.55238 139.79109 23 ft 8 kts 64°
2026-05-01 13:23 35.55281 139.79169 20 ft 10 kts 15°
2026-05-01 13:23 35.55352 139.79147 19 ft 10 kts 332°
2026-05-01 13:23 35.55411 139.79108 20 ft 8 kts 330°
2026-05-01 13:23 35.55461 139.79073 21 ft 7 kts 330°
2026-05-01 13:24 35.55510 139.79039 21 ft 10 kts 330°
2026-05-01 13:24 35.55599 139.78973 21 ft 19 kts 329°
2026-05-01 13:24 35.55719 139.78888 22 ft 19 kts 329°
2026-05-01 13:25 35.55957 139.78720 22 ft 20 kts 330°
2026-05-01 13:25 35.56080 139.78633 21 ft 20 kts 330°
2026-05-01 13:25 35.56207 139.78543 20 ft 20 kts 330°
2026-05-01 13:25 35.56292 139.78482 20 ft 5 kts 329°
2026-05-01 13:26 35.56323 139.78461 20 ft 4 kts 338°
2026-05-01 13:26 35.56358 139.78462 19 ft 5 kts 22°
2026-05-01 13:26 35.56393 139.78499 18 ft 7 kts 57°
2026-05-01 13:26 35.56423 139.78560 16 ft 9 kts 58°
2026-05-01 13:27 35.56456 139.78626 16 ft 9 kts 59°
2026-05-01 13:27 35.56478 139.78691 16 ft 7 kts 87°
2026-05-01 13:27 35.56450 139.78755 16 ft 0 kts 149°
2026-05-01 13:28 35.56304 139.78856 16 ft 57 kts 150°
2026-05-01 13:28 35.55775 139.79231 16 ft 118 kts 150°
2026-05-01 13:29 35.53862 139.80595 415 ft 173 kts 154°
2026-05-01 13:29 35.51801 139.82416 1311 ft 196 kts 137°
2026-05-01 13:30 35.48641 139.86603 2192 ft 253 kts 139°